[[{"header":{"parameterUnit":"m.s-1","parameterCategory":1,"la1":30.2991,"la2":30.254,"lo1":-89.0895,"lo2":-89.0444,"dy":0.0017,"dx":0.0017,"nx":28,"ny":28,"refTime":"2025-01-10T03:00:00:Z","depth":0,"parameterNumber":2,"parameterNumberName":"U-component_of_WINDS"},"data":[0,0,0,0,0,0,0,0,0,0,0,0,0,0,0,0,0,0,0,0,0,0,0,0,0,0,0,0,0,0,0,0,0,0,0,0,0,0,0,0,0,0,0,0,0,0,0,0,0,0,0,0,0,0,0,0,0,0,-7.4461,-7.4461,0,-7.4436,-7.4436,-7.4435,-7.4191,-7.4185,-7.4179,-7.4173,-7.4151,-7.4156,-7.4161,0,0,0,0,0,0,0,0,0,0,0,0,0,-7.4302,-7.4307,-7.4461,-7.4461,-7.4461,-7.4436,-7.4436,-7.4435,-7.4192,-7.4184,-7.4177,-7.417,-7.415,-7.4156,-7.4162,0,0,0,0,0,0,0,0,0,0,0,0,0,-7.4334,-7.4308,-7.4461,-7.4336,-7.4325,-7.4436,-7.4436,-7.4435,-7.4193,-7.4184,-7.4175,-7.4167,-7.4148,-7.4155,-7.4163,-7.4394,0,0,-7.4186,-7.4189,0,0,0,0,0,0,0,0,-7.4333,-7.434,-7.4355,-7.4345,-7.4332,-7.4307,-7.4371,-7.4421,-7.4196,-7.4244,-7.4173,-7.4162,-7.4211,-7.4213,-7.4228,-7.4392,-7.4392,-7.4187,-7.4191,-7.4195,-7.4197,0,0,0,0,0,0,0,-7.4331,-7.434,-7.4451,-7.4355,-7.4342,-7.4282,-7.4277,-7.438,-7.4279,-7.4239,-7.4221,-7.4221,-7.4203,-7.4221,-7.4226,-7.4391,-7.4187,-7.4193,-7.4198,-7.4201,-7.4742,-7.4751,0,0,0,0,0,0,-7.4345,-7.434,-7.4452,-7.4451,-7.431,-7.4293,-7.4286,-7.4325,-7.4277,-7.4261,-7.4229,-7.421,-7.4213,-7.4217,-7.4224,-7.4489,-7.4195,-7.4202,-7.4206,-7.4732,-7.4744,-7.4755,0,0,0,0,0,0,-7.4343,-7.4358,-7.4453,-7.439,-7.4398,-7.4305,-7.435,-7.4329,-7.4347,-7.427,-7.4251,-7.4266,-7.4206,-7.4213,-7.4352,-7.4485,-7.4205,-7.4212,-7.4721,-7.4736,-7.4749,-7.5024,0,0,0,0,0,0,-7.4339,-7.4358,-7.4444,-7.4394,-7.4402,-7.4582,-7.4358,-7.4335,-7.436,-7.4335,-7.43,-7.4285,-7.4199,-7.4342,-7.436,-7.4491,-7.4218,-7.4708,-7.4728,-7.4745,-7.5003,-7.5046,-7.5084,0,0,0,0,0,-7.4334,-7.4524,-7.445,-7.4465,-7.4508,-7.459,-7.4595,-7.4491,-7.4372,-7.4458,-7.4408,-7.4286,-7.4469,-7.4359,-7.4377,-7.4512,-7.47,-7.4722,-7.4743,-7.4985,-7.5038,-7.5083,0,0,0,0,0,0,-7.4594,-7.4515,-7.4432,-7.4611,-7.4609,-7.4548,-7.4654,-7.4551,-7.4583,-7.4559,-7.443,-7.4424,-7.4583,-7.4561,-7.444,-7.4732,-7.4563,-7.459,-7.474,-7.479,-7.483,-7.4831,-7.4225,0,0,0,0,0,-7.4672,-7.4745,-7.4672,-7.4837,-7.484,-7.4748,-7.478,-7.47,-7.4693,-7.4691,-7.4651,-7.4651,-7.4707,-7.4748,-7.4796,-7.4999,-7.4987,-7.5101,-7.5141,-7.5175,-7.5199,-7.5304,-7.5353,-7.4827,-7.4827,-7.4826,0,0,-7.4834,-7.48,-7.4854,-7.4888,-7.4877,-7.4955,-7.4749,-7.4841,-7.4897,-7.4706,-7.4833,-7.4805,-7.4796,-7.4968,-7.5041,-7.4955,-7.5342,-7.5203,-7.523,-7.5236,-7.5331,-7.5381,-7.5426,-7.4842,-7.4839,-7.4837,0,0,-7.5169,-7.5151,-7.5285,-7.5278,-7.5263,-7.52,-7.5233,-7.5188,-7.5161,-7.5287,-7.5145,-7.5211,-7.5312,-7.5311,-7.5324,-7.5658,-7.5546,-7.5678,-7.5888,-7.5992,-7.6033,-7.6069,-7.6187,-7.6231,-7.5702,-7.5703,-7.5703,0,-7.5372,-7.5483,-7.5367,-7.5468,-7.5487,-7.5316,-7.5451,-7.545,-7.5453,-7.5471,-7.5373,-7.5495,-7.5477,-7.5645,-7.5727,-7.5744,-7.5777,-7.568,-7.6036,-7.6071,-7.6103,-7.6214,-7.6259,-7.5719,-7.5717,-7.5715,-7.5714,0,-7.5733,-7.5813,-7.5923,-7.5928,-7.5959,-7.6078,-7.598,-7.6027,-7.5945,-7.5893,-7.6024,-7.5996,-7.6034,-7.6069,-7.5991,-7.6227,-7.6173,-7.6059,-7.5885,-7.6171,-7.6273,-7.6315,-7.5741,-7.5736,-7.5731,-7.5727,0,0,-7.623,-7.6168,-7.6211,-7.621,-7.6181,-7.6241,-7.6352,-7.6387,-7.6429,-7.6438,-7.6527,-7.6616,-7.6509,-7.6524,-7.6444,-7.6535,-7.68,-7.6408,-7.6406,-7.6481,-7.7057,-7.7142,-7.7193,-7.6726,-7.6734,-7.674,-7.7057,0,-7.655,-7.6733,-7.6632,-7.6829,-7.69,-7.6739,-7.6835,-7.6828,-7.6784,-7.6838,-7.6789,-7.6853,-7.6708,-7.6716,-7.6799,-7.675,-7.6914,-7.6726,-7.6808,-7.6812,-7.6813,-7.7246,-7.7337,-7.7637,-7.7096,-7.7103,-7.7108,0,-7.6948,-7.6971,-7.7175,-7.7131,-7.7157,-7.7245,-7.7269,-7.7324,-7.7314,-7.7274,-7.7291,-7.7189,-7.7295,-7.7125,-7.7269,-7.7144,-7.7172,-7.7153,-7.7162,-7.7164,-7.6976,-7.7259,-7.773,-7.7775,-7.717,-7.7165,-7.7161,0,-7.7288,-7.737,-7.7502,-7.7507,-7.746,-7.7525,-7.7509,-7.7489,-7.7517,-7.7539,-7.7556,-7.7592,-7.7611,-7.7641,-7.7552,-7.7437,-7.7708,-7.7531,-7.7678,-7.7681,-7.7741,-7.7738,-7.8222,-7.7763,-7.7762,-7.7761,-7.7761,0,-7.7655,-7.7786,-7.7653,-7.7735,-7.7876,-7.776,-7.7904,-7.787,-7.7854,-7.7927,-7.7791,-7.7862,-7.774,-7.7799,-7.773,-7.7859,-7.787,-7.7841,-7.7821,-7.7852,-7.7856,-7.7867,-7.7843,-7.7773,-7.7771,-7.7768,-7.7766,0,-7.8057,-7.7974,-7.8107,-7.8051,-7.804,-7.8147,-7.8099,-7.8172,-7.8118,-7.8211,-7.8227,-7.8142,-7.8205,-7.8119,-7.8174,-7.8127,-7.8303,-7.8253,-7.8307,-7.8291,-7.8442,-7.8429,-7.8949,-7.9011,-7.8515,-7.852,-7.8524,0,-7.8296,-7.8392,-7.8346,-7.8384,-7.8375,-7.8438,-7.8465,-7.8355,-7.8389,-7.8384,-7.8458,-7.8509,-7.8543,-7.8652,-7.8596,-7.8637,-7.8585,-7.8765,-7.859,-7.8618,-7.8585,-7.858,-7.8588,-7.88,-7.8806,-7.8811,-7.8815,0,-7.8728,-7.8681,-7.8725,-7.8755,-7.879,-7.8809,-7.8818,-7.8857,-7.8741,-7.8787,-7.8848,-7.8875,-7.893,-7.8982,-7.9009,-7.8992,-7.8886,-7.8871,-7.8906,-7.8938,-7.8964,-7.895,-7.8402,-7.8859,-7.8854,-7.8851,-7.8849,-7.8847,-7.9053,-7.9131,-7.911,-7.9163,-7.9157,-7.9169,-7.9234,-7.9187,-7.9236,-7.927,-7.9203,-7.9282,-7.9268,-7.9292,-7.9288,-7.9349,-7.927,-7.9323,-7.9336,-7.935,-7.9372,-7.8957,-7.9353,-7.9352,-7.9351,-7.935,-7.9349,0,-7.9476,-7.9454,-7.9504,-7.9519,-7.9562,-7.9456,-7.946,-7.9502,-7.9572,-7.9568,-7.9604,-7.9675,-7.9725,-7.9674,-7.9714,-7.9772,-7.9724,-7.9786,-7.978,-7.9778,-7.9441,-7.9405,-7.9824,-7.9824,-7.9824,-7.9824,-7.9824,-7.9824,-7.9701,-7.9825,-7.9777,-7.9898,-7.9875,-7.9949,-7.9961,-7.997,-7.9966,-8.005,-8.009,-8.0056,-8.0033,-8.007,-8.0112,-8.0095,-8.0116,-8.0196,-8.0162,-7.9848,-7.9801,-7.9757,-7.9722,-8.0202,-8.0202,-8.0493,-8.0496,-8.0498]},{"header":{"parameterUnit":"m.s-1","parameterCategory":1,"la1":30.2991,"la2":30.254,"lo1":-89.0895,"lo2":-89.0444,"dy":0.0017,"dx":0.0017,"nx":28,"ny":28,"refTime":"2025-01-10T03:00:00:Z","depth":0,"parameterNumber":3,"parameterNumberName":"V-component_of_WINDS"},"data":[0,0,0,0,0,0,0,0,0,0,0,0,0,0,0,0,0,0,0,0,0,0,0,0,0,0,0,0,0,0,0,0,0,0,0,0,0,0,0,0,0,0,0,0,0,0,0,0,0,0,0,0,0,0,0,0,0,0,-0.3925,-0.3925,0,-0.39,-0.39,-0.3899,-0.3937,-0.3938,-0.3939,-0.3941,-0.3914,-0.3912,-0.391,0,0,0,0,0,0,0,0,0,0,0,0,0,-0.4001,-0.4,-0.3925,-0.3925,-0.3924,-0.39,-0.39,-0.3899,-0.3936,-0.3938,-0.394,-0.3941,-0.3915,-0.3912,-0.391,0,0,0,0,0,0,0,0,0,0,0,0,0,-0.3971,-0.3999,-0.3925,-0.394,-0.3941,-0.39,-0.39,-0.3899,-0.3936,-0.3938,-0.394,-0.3942,-0.3915,-0.3913,-0.391,-0.3853,0,0,-0.3901,-0.39,0,0,0,0,0,0,0,0,-0.3973,-0.3969,-0.3938,-0.3939,-0.394,-0.3924,-0.3917,-0.3884,-0.3936,-0.3938,-0.3941,-0.3943,-0.3916,-0.3913,-0.3904,-0.3852,-0.385,-0.3901,-0.3899,-0.3898,-0.3897,0,0,0,0,0,0,0,-0.3975,-0.397,-0.3915,-0.3937,-0.3939,-0.3947,-0.3945,-0.3911,-0.3916,-0.3938,-0.3941,-0.3937,-0.3916,-0.3906,-0.3903,-0.385,-0.3901,-0.3898,-0.3896,-0.3895,-0.3745,-0.3743,0,0,0,0,0,0,-0.3976,-0.3971,-0.3916,-0.3914,-0.3962,-0.3944,-0.3941,-0.3927,-0.3917,-0.3917,-0.3935,-0.3939,-0.391,-0.3907,-0.3903,-0.3831,-0.3898,-0.3895,-0.3893,-0.3747,-0.3744,-0.3742,0,0,0,0,0,0,-0.3977,-0.397,-0.3917,-0.3943,-0.3937,-0.394,-0.3924,-0.3925,-0.3915,-0.3915,-0.3916,-0.3924,-0.3912,-0.3907,-0.3864,-0.3831,-0.3894,-0.3891,-0.375,-0.3746,-0.3743,-0.369,0,0,0,0,0,0,-0.3979,-0.3971,-0.395,-0.3943,-0.3936,-0.3879,-0.3922,-0.3923,-0.391,-0.3915,-0.3905,-0.3905,-0.3913,-0.3868,-0.3861,-0.3828,-0.3889,-0.3753,-0.3748,-0.3744,-0.3695,-0.3686,-0.3678,0,0,0,0,0,-0.3982,-0.3937,-0.3949,-0.3942,-0.391,-0.3877,-0.3873,-0.3884,-0.3908,-0.3886,-0.3885,-0.3905,-0.3836,-0.3863,-0.3856,-0.3821,-0.3755,-0.3749,-0.3745,-0.3699,-0.3687,-0.3678,0,0,0,0,0,0,-0.3941,-0.3936,-0.3949,-0.3901,-0.3889,-0.3884,-0.3857,-0.3872,-0.3853,-0.3858,-0.3872,-0.3869,-0.3822,-0.3818,-0.3848,-0.3763,-0.3799,-0.3792,-0.3767,-0.3756,-0.3748,-0.3748,-0.3886,0,0,0,0,0,-0.3926,-0.3901,-0.3898,-0.3856,-0.3849,-0.3854,-0.384,-0.3849,-0.3837,-0.3832,-0.3828,-0.3815,-0.379,-0.3774,-0.3752,-0.3696,-0.3692,-0.3668,-0.3659,-0.3652,-0.3645,-0.361,-0.3599,-0.3725,-0.3725,-0.3725,0,0,-0.3895,-0.389,-0.3873,-0.3847,-0.3839,-0.381,-0.3849,-0.3819,-0.3797,-0.3828,-0.3785,-0.3782,-0.3769,-0.3718,-0.3695,-0.3713,-0.3609,-0.3646,-0.364,-0.3637,-0.3604,-0.3592,-0.3581,-0.3722,-0.3722,-0.3723,0,0,-0.3824,-0.3819,-0.378,-0.3771,-0.3758,-0.3761,-0.3752,-0.3743,-0.3742,-0.37,-0.3721,-0.3696,-0.3654,-0.3641,-0.363,-0.3551,-0.3567,-0.3544,-0.3496,-0.3463,-0.3452,-0.3444,-0.3411,-0.3399,-0.3537,-0.3537,-0.3537,0,-0.3787,-0.3745,-0.3759,-0.3725,-0.3711,-0.3738,-0.3697,-0.3688,-0.3668,-0.3657,-0.3678,-0.3623,-0.3616,-0.356,-0.354,-0.3532,-0.3519,-0.3543,-0.3453,-0.3444,-0.3436,-0.3405,-0.3393,-0.3534,-0.3534,-0.3534,-0.3535,0,-0.3698,-0.3669,-0.364,-0.3618,-0.3602,-0.3565,-0.3571,-0.3553,-0.3563,-0.3563,-0.3518,-0.3511,-0.3485,-0.3473,-0.3484,-0.3418,-0.3429,-0.3451,-0.3487,-0.3421,-0.3391,-0.338,-0.3529,-0.353,-0.3531,-0.3532,0,0,-0.3599,-0.3584,-0.3573,-0.3561,-0.3548,-0.3525,-0.3489,-0.3463,-0.3445,-0.343,-0.3397,-0.336,-0.3379,-0.3366,-0.3375,-0.3346,-0.3278,-0.3372,-0.3372,-0.3351,-0.3199,-0.3179,-0.3165,-0.329,-0.3288,-0.3286,-0.3199,0,-0.3524,-0.3461,-0.347,-0.3408,-0.3379,-0.3403,-0.3371,-0.3357,-0.3356,-0.3331,-0.333,-0.3301,-0.3332,-0.3323,-0.3295,-0.3292,-0.3247,-0.3299,-0.3256,-0.3255,-0.3255,-0.3151,-0.3131,-0.3048,-0.3188,-0.3186,-0.3185,0,-0.3428,-0.3408,-0.3342,-0.3329,-0.3318,-0.3288,-0.3263,-0.324,-0.3224,-0.3225,-0.3209,-0.3223,-0.3184,-0.3222,-0.3167,-0.3201,-0.3185,-0.318,-0.3178,-0.3171,-0.3213,-0.3137,-0.3023,-0.3009,-0.3168,-0.3169,-0.3171,0,-0.3356,-0.3313,-0.3267,-0.3258,-0.3243,-0.3221,-0.3214,-0.3201,-0.3183,-0.3162,-0.315,-0.3125,-0.311,-0.3089,-0.3094,-0.3123,-0.3035,-0.3076,-0.3032,-0.3031,-0.301,-0.301,-0.2886,-0.3006,-0.3006,-0.3007,-0.3007,0,-0.3269,-0.3226,-0.3234,-0.3205,-0.3158,-0.3169,-0.3121,-0.3117,-0.3105,-0.3074,-0.3095,-0.3065,-0.3076,-0.3046,-0.3051,-0.3001,-0.2995,-0.2993,-0.2993,-0.2988,-0.2988,-0.2974,-0.2978,-0.3003,-0.3004,-0.3005,-0.3005,0,-0.3179,-0.3183,-0.3134,-0.3123,-0.312,-0.3084,-0.3075,-0.3046,-0.3047,-0.3007,-0.2999,-0.2999,-0.2965,-0.2969,-0.2932,-0.2934,-0.2871,-0.2881,-0.2875,-0.2876,-0.283,-0.2832,-0.269,-0.267,-0.2807,-0.2806,-0.2804,0,-0.3121,-0.3089,-0.3074,-0.3055,-0.3045,-0.3015,-0.2997,-0.3007,-0.2986,-0.2965,-0.2938,-0.2906,-0.288,-0.2824,-0.282,-0.279,-0.2797,-0.2749,-0.2793,-0.2787,-0.279,-0.279,-0.2785,-0.2739,-0.2738,-0.2737,-0.2736,0,-0.3016,-0.3018,-0.2992,-0.2964,-0.2942,-0.2921,-0.2902,-0.2885,-0.2893,-0.2869,-0.2834,-0.2814,-0.2774,-0.274,-0.2712,-0.2703,-0.2718,-0.2722,-0.271,-0.2702,-0.2697,-0.2694,-0.2847,-0.2725,-0.2726,-0.2727,-0.2727,-0.2728,-0.2937,-0.2907,-0.2891,-0.286,-0.2846,-0.2827,-0.2799,-0.2795,-0.2766,-0.2734,-0.2742,-0.2701,-0.2684,-0.2647,-0.2635,-0.2602,-0.2619,-0.2602,-0.2597,-0.2591,-0.2583,-0.2706,-0.2597,-0.2598,-0.2598,-0.2598,-0.2599,0,-0.2828,-0.2819,-0.279,-0.2761,-0.2735,-0.2754,-0.2734,-0.271,-0.2674,-0.2657,-0.263,-0.2588,-0.2554,-0.2547,-0.2514,-0.2489,-0.2495,-0.248,-0.2479,-0.2476,-0.2572,-0.2584,-0.2475,-0.2475,-0.2475,-0.2475,-0.2475,-0.2475,-0.2768,-0.2718,-0.2718,-0.266,-0.2651,-0.2611,-0.2596,-0.2578,-0.2564,-0.2515,-0.2487,-0.2483,-0.2468,-0.2434,-0.2404,-0.2402,-0.2387,-0.2367,-0.2368,-0.2458,-0.247,-0.2481,-0.2492,-0.2365,-0.2365,-0.2274,-0.2273,-0.2272]}]]